GEFSNGP_con_probscp_234.txt.gz
Probability
0 0 0 0 0 0 0 0 2 7 14 21 27 30 31 32 34 37 41 45 52 61 64 64 63 63 62 61 59 58 59 62 62 59 59 60 59 58 56 53 50 46 40 36
0 0 0 0 0 0 0 1 4 9 15 23 30 30 30 30 31 34 39 44 50 57 60 61 62 63 62 60 59 59 60 62 62 59 57 58 57 56 54 52 52 48 41 36
0 0 0 0 1 1 2 4 7 12 19 26 31 31 31 30 31 34 38 45 50 52 54 55 58 61 60 57 58 60 60 61 60 57 55 54 54 53 52 52 53 48 40 35
0 0 0 0 1 2 3 6 9 14 21 26 27 28 30 35 37 40 44 50 53 51 49 51 53 57 57 55 56 58 58 57 56 56 55 54 53 52 52 53 52 46 37 34
0 0 0 1 1 2 4 6 9 15 21 23 22 25 33 42 47 49 51 54 53 50 48 49 51 54 55 54 54 54 53 53 54 56 57 56 54 52 52 52 49 42 35 32
0 0 2 2 2 3 5 8 11 17 22 25 26 29 39 51 55 55 54 52 50 48 47 48 51 53 53 51 50 49 48 49 53 55 56 54 52 50 50 48 43 36 31 28
1 1 4 5 4 7 14 19 21 23 27 33 37 40 46 54 58 56 52 48 46 46 47 48 50 50 49 47 46 46 46 47 48 48 47 46 46 46 46 42 37 31 26 24
4 6 10 13 14 21 31 34 30 28 30 38 45 46 49 55 56 52 46 43 44 45 46 48 48 46 45 46 46 46 46 45 42 40 37 35 37 39 38 35 31 28 24 21
14 16 20 24 28 34 39 37 31 28 30 38 44 46 50 54 54 49 43 41 43 43 43 44 44 42 42 43 44 44 42 39 37 35 30 27 30 31 31 29 26 25 22 19
26 27 28 30 31 31 29 28 26 27 30 35 40 45 49 52 51 46 43 40 40 40 39 38 37 35 33 35 36 37 35 32 31 29 25 23 24 24 23 23 21 21 19 17
31 32 32 31 27 23 21 22 24 27 31 34 38 44 46 47 46 43 41 38 36 36 35 33 31 28 27 27 27 28 29 28 26 23 18 16 15 15 14 13 12 13 13 12
28 31 34 32 27 24 23 23 25 29 32 34 38 41 42 43 43 41 39 37 34 31 30 28 26 25 24 23 22 23 24 25 23 18 14 10 9 8 7 5 4 4 4 4
28 30 33 33 30 28 27 26 28 31 33 35 36 37 39 40 40 39 38 36 32 27 25 23 21 21 21 20 20 20 20 20 19 16 14 11 9 8 7 4 2 1 0 0
30 32 34 32 32 32 30 30 31 33 34 34 33 32 33 35 35 34 34 32 28 23 20 18 18 19 19 17 17 17 17 16 16 16 15 14 12 10 7 5 3 2 1 0
28 30 32 32 32 33 32 32 32 32 32 32 30 28 28 29 29 29 29 28 25 22 19 17 17 17 17 16 16 16 15 15 16 16 15 15 13 10 7 6 4 3 2 1
23 24 25 27 28 28 30 30 29 30 29 28 26 24 24 25 25 25 24 24 25 26 23 20 18 16 15 15 14 14 12 11 12 12 12 13 11 9 7 6 4 3 3 2
18 18 19 21 23 24 26 26 25 25 25 24 24 22 21 21 21 20 18 20 25 27 24 21 18 15 14 12 12 10 7 6 7 7 8 9 9 7 6 6 4 3 3 2
13 15 17 19 20 21 22 21 21 21 20 20 21 21 19 18 18 17 16 17 20 21 18 15 13 13 13 11 10 8 6 5 5 5 5 6 6 6 6 5 4 4 4 2
11 13 15 16 16 15 14 15 17 19 18 18 19 20 19 17 16 16 16 15 14 13 12 10 8 10 12 11 9 7 7 6 6 5 4 3 4 4 4 4 4 5 5 4
10 10 11 11 12 11 11 12 14 16 16 16 18 18 18 18 16 15 14 13 10 9 8 7 7 8 8 7 5 5 5 5 4 2 1 2 2 3 3 3 3 4 4 4
7 8 8 9 11 12 12 13 12 10 11 14 15 16 17 17 15 14 13 11 8 6 5 4 5 6 4 2 2 1 2 2 1 0 0 2 3 3 3 3 2 3 2 2
7 7 7 9 11 13 13 12 9 7 8 10 12 13 14 14 12 11 10 8 5 3 2 1 2 2 1 0 0 0 0 0 0 0 1 3 3 3 3 3 3 3 2 1
8 9 10 10 12 12 11 9 7 6 6 8 9 10 10 11 9 7 5 4 2 1 0 0 0 0 0 0 0 0 0 0 0 0 1 2 3 3 3 3 3 3 3 2
10 12 13 12 12 12 10 7 5 4 4 5 6 6 6 7 6 3 1 1 0 0 0 0 0 0 0 0 0 0 0 0 0 0 0 1 1 2 2 3 3 3 3 3
12 13 13 12 10 9 8 5 3 2 2 3 3 2 2 4 3 1 0 0 0 0 0 0 0 0 0 0 0 0 0 0 0 0 0 0 0 1 1 2 3 3 3 3
10 10 10 9 7 5 3 2 1 1 0 1 1 1 1 2 2 1 0 0 0 0 0 0 0 0 0 0 0 0 0 0 0 0 0 0 1 1 1 2 3 3 3 3
8 8 8 7 5 3 1 0 0 0 0 0 1 2 2 1 1 0 0 0 0 0 0 0 0 0 0 0 0 0 0 0 0 0 0 1 2 2 2 3 3 3 3 3

GEFSNGP_con_probscp_240.txt.gz
Probability
0 0 0 0 1 0 0 0 1 5 10 13 19 28 37 39 37 35 34 33 32 31 32 34 37 37 34 30 30 32 35 40 44 44 43 41 37 31 26 21 17 12 10 9
0 0 0 0 1 1 1 1 3 7 13 17 23 30 36 37 36 34 33 32 32 33 34 34 35 35 34 31 32 33 36 38 40 40 39 39 40 36 29 23 19 15 13 12
0 0 0 0 1 1 3 5 7 12 18 23 28 33 36 39 39 35 33 33 35 36 35 32 31 32 35 37 36 36 37 38 40 39 38 39 41 39 33 26 20 17 15 13
0 0 0 0 0 2 6 10 16 21 26 29 32 35 38 39 39 35 34 35 38 38 34 32 32 34 37 39 38 36 36 37 38 39 39 39 39 38 34 28 22 17 14 14
0 0 0 0 1 4 9 15 22 28 32 33 35 37 37 35 35 36 36 37 39 38 36 36 36 36 36 35 33 30 30 32 32 33 35 36 35 35 33 29 24 17 14 13
0 0 0 2 4 6 11 17 22 27 29 30 34 37 36 35 36 39 40 40 38 37 37 36 34 33 31 29 25 23 24 25 25 26 28 29 30 30 30 28 24 17 12 9
0 0 1 5 8 8 11 16 21 24 24 24 30 35 37 39 40 41 42 40 38 36 34 31 28 27 27 26 23 21 20 20 21 23 24 24 25 26 26 24 21 16 10 5
0 0 3 7 10 10 11 15 18 20 20 20 25 32 39 42 43 42 41 37 34 31 27 25 24 24 24 23 22 19 17 17 18 21 22 22 23 23 22 20 18 15 8 4
2 3 6 9 11 12 13 15 15 16 17 19 24 32 39 43 43 42 36 31 27 26 23 21 20 21 20 18 15 14 14 15 17 18 19 19 19 19 17 16 16 13 7 4
8 9 11 12 12 14 16 18 17 17 19 23 27 33 38 41 40 36 31 27 25 25 22 18 16 15 15 12 10 10 11 12 12 13 13 13 14 13 12 13 12 10 6 5
10 11 12 12 13 16 19 20 19 19 22 26 30 34 36 36 34 30 26 25 25 25 21 16 12 11 10 8 8 9 10 10 8 7 7 7 8 8 8 8 7 6 5 5
7 7 8 9 12 16 20 21 19 20 24 28 32 33 34 32 29 27 24 24 23 22 17 12 9 9 8 7 8 8 9 8 6 4 4 4 5 5 4 3 3 2 2 3
5 6 7 10 13 16 19 20 20 21 24 27 29 31 31 29 27 24 23 23 21 18 14 10 8 8 8 7 8 9 9 7 5 3 3 3 4 4 3 2 1 1 1 1
8 8 9 12 15 17 19 19 20 21 22 23 25 27 28 26 22 19 18 19 18 15 12 10 8 6 5 5 6 8 9 8 6 4 3 3 3 3 3 3 2 2 1 0
10 9 9 12 15 18 18 18 18 18 18 19 21 24 24 22 17 13 12 14 14 13 12 10 8 5 4 4 5 6 8 9 7 5 4 3 3 3 3 3 4 3 2 1
10 9 8 10 13 15 15 15 14 13 14 16 18 19 18 15 12 9 8 9 10 10 8 7 6 6 6 6 6 6 8 9 8 7 4 3 3 3 3 4 4 4 3 3
7 7 7 8 9 10 10 9 8 8 10 13 13 12 10 9 7 6 5 5 6 5 5 5 5 6 6 6 6 7 7 8 7 6 4 3 3 3 3 4 4 4 3 3
4 4 5 6 6 7 6 5 5 5 7 9 7 5 5 4 3 3 3 3 3 3 4 4 5 5 6 5 5 5 5 6 6 5 4 3 3 3 3 3 3 3 3 3
3 3 3 5 5 5 4 4 4 4 4 4 3 2 1 1 1 1 1 1 2 3 3 4 4 3 3 3 2 2 2 3 4 3 2 2 2 2 1 1 3 3 3 3
2 1 1 3 3 3 3 3 4 3 2 1 0 0 0 0 0 0 1 1 1 3 3 3 3 1 1 1 0 0 0 1 1 1 1 1 1 1 0 1 2 3 3 3
2 2 1 1 1 1 1 1 2 2 0 0 0 0 0 1 1 1 2 2 1 2 3 3 2 1 0 0 0 0 0 0 0 0 0 0 0 0 0 0 1 2 3 2
3 3 2 1 0 0 0 0 0 0 0 1 1 1 0 0 1 2 2 2 1 1 1 2 2 1 0 0 0 0 0 0 0 0 0 0 0 0 0 0 1 1 1 1
3 3 3 1 0 0 0 0 0 0 0 1 1 1 0 0 1 1 1 1 0 0 0 1 1 0 0 0 0 0 0 0 0 0 0 0 0 0 0 0 0 0 0 0
3 3 3 2 1 1 1 1 1 1 0 0 0 0 0 0 0 0 0 0 0 0 0 0 0 0 0 0 0 0 0 0 0 0 0 0 0 0 0 0 0 0 0 0
3 3 3 3 3 3 3 2 2 1 0 0 0 0 0 0 0 0 0 0 0 0 0 0 0 0 0 0 0 0 0 0 0 0 0 0 0 0 0 0 0 0 0 0
3 3 3 4 5 6 4 2 1 0 0 0 0 0 0 0 0 0 0 0 0 0 0 0 0 0 0 0 0 0 0 0 0 0 0 0 0 0 0 0 0 0 0 0
3 3 4 5 6 6 5 2 0 0 0 0 0 0 0 0 0 0 0 0 0 0 0 0 0 0 0 0 0 0 0 0 0 0 0 0 0 0 0 0 0 0 0 0

GEFSNGP_con_probscp_246.txt.gz
Probability
0 0 1 3 4 2 1 1 0 0 0 3 8 14 18 20 20 19 20 20 21 25 27 25 22 22 23 23 22 20 19 20 24 27 30 31 29 26 21 16 12 10 9 8
0 0 1 3 4 3 3 2 1 1 2 6 12 17 19 20 22 23 24 25 25 27 28 26 22 21 21 21 20 19 19 21 24 27 29 30 30 28 23 17 14 12 10 9
0 0 0 2 3 4 4 3 3 3 5 10 17 20 20 22 26 27 29 31 31 30 29 27 22 19 18 17 18 19 20 21 23 23 24 25 25 24 21 17 15 14 13 12
0 0 0 1 1 3 3 4 5 7 10 16 21 22 21 23 25 26 27 31 33 31 29 26 21 17 16 16 19 21 20 20 19 18 18 18 19 18 18 16 15 15 15 15
0 0 0 1 1 1 3 4 6 11 17 22 24 24 23 22 21 21 23 26 29 29 27 24 21 18 16 16 17 19 19 17 17 16 15 14 15 16 17 16 15 15 15 15
0 0 0 0 0 1 2 2 5 13 20 23 24 23 21 19 19 19 21 23 24 24 23 21 19 18 16 14 14 15 16 15 15 15 15 13 14 16 17 17 15 14 13 13
0 0 0 0 0 1 1 2 5 11 16 18 18 18 16 17 18 19 21 22 22 20 18 17 15 14 12 11 10 11 11 11 12 13 14 14 15 16 16 16 15 13 11 10
0 0 0 0 1 1 1 2 6 8 10 12 13 14 15 16 17 18 19 19 18 17 14 12 10 9 7 7 7 7 7 7 8 10 13 15 16 16 16 15 14 13 11 8
0 1 1 1 1 0 0 2 5 6 7 11 13 15 17 18 18 19 18 17 15 16 14 10 7 6 5 5 4 4 5 6 7 7 9 11 13 14 14 13 12 12 10 8
1 2 3 3 2 1 1 3 5 6 8 12 15 17 19 19 20 22 20 17 17 18 16 11 7 6 5 5 4 4 5 6 6 6 6 7 8 10 10 10 10 10 9 8
2 3 4 4 4 3 3 5 7 9 10 13 15 17 20 21 23 24 21 17 18 19 16 12 9 6 5 5 5 4 4 5 5 5 4 4 4 5 5 6 6 7 7 7
2 1 1 3 4 5 5 6 9 11 12 13 15 17 20 22 23 22 17 15 15 15 13 11 9 6 5 6 6 5 5 4 4 3 3 3 3 3 2 3 3 3 4 5
1 0 0 1 3 5 6 7 9 11 13 15 16 17 18 20 20 16 12 10 10 10 9 8 7 7 7 7 7 7 6 4 3 2 2 2 3 2 1 1 1 1 1 1
0 0 0 1 2 5 7 9 10 11 14 15 14 13 15 16 15 12 8 6 6 7 7 7 7 7 7 8 8 8 6 5 4 2 1 1 1 2 1 0 0 0 0 0
0 0 1 3 4 6 9 10 10 12 13 13 11 11 13 14 11 8 5 4 4 5 6 6 6 6 7 7 8 8 6 5 4 2 0 0 1 2 1 0 0 0 0 0
0 1 3 6 8 10 11 10 9 9 10 11 11 12 14 13 8 4 3 1 2 3 4 4 4 5 6 6 7 7 6 5 4 1 1 1 1 2 1 1 1 1 0 0
1 2 4 7 10 12 11 9 7 6 8 10 11 12 12 9 5 2 1 0 1 2 3 3 3 4 4 6 7 7 6 5 3 2 2 2 2 2 2 2 2 1 0 0
0 1 3 6 8 11 11 8 5 5 7 9 10 9 8 5 3 1 0 0 0 1 1 2 3 3 3 4 5 5 5 5 3 2 2 2 2 2 2 1 1 1 0 0
0 1 2 4 6 7 9 7 4 3 4 6 6 5 4 3 2 1 0 0 0 0 0 1 2 3 3 3 3 3 4 4 3 2 1 1 1 0 0 0 0 0 0 0
1 2 3 3 4 5 6 6 5 3 3 3 4 4 4 3 1 0 0 0 0 0 0 0 1 2 2 1 1 3 3 3 3 2 1 0 0 0 0 0 0 0 0 0
3 3 3 4 3 3 4 5 5 5 4 3 3 4 5 4 1 0 0 0 0 0 0 0 1 2 1 0 1 3 3 3 2 2 1 0 0 0 0 0 0 0 0 0
2 3 3 4 4 3 3 4 5 5 4 3 4 5 5 4 2 0 0 0 0 0 0 0 1 1 1 1 2 2 2 1 1 1 0 0 0 0 0 0 0 0 0 0
1 1 2 3 3 2 2 2 4 5 4 3 3 4 3 2 1 0 0 0 0 0 0 1 1 0 0 1 1 1 1 0 0 0 0 0 0 0 0 0 0 0 0 0
0 0 1 1 1 1 0 1 2 3 3 2 2 2 1 0 0 0 0 0 0 0 0 0 0 0 0 0 0 0 0 0 0 0 0 0 0 0 0 0 0 0 0 0
0 0 0 0 0 0 0 0 1 1 1 1 1 1 0 0 0 0 0 0 0 0 0 0 0 0 0 0 0 0 0 0 0 0 0 0 0 0 0 0 0 0 0 0
0 0 0 0 0 0 0 0 0 0 1 0 0 0 0 0 0 0 0 0 0 0 0 0 0 0 0 0 0 0 0 0 0 0 0 0 0 0 0 0 0 0 0 0
0 0 0 0 0 0 0 0 0 0 1 0 0 0 0 0 0 0 0 0 0 0 0 0 0 0 0 0 0 0 0 0 0 0 0 0 0 0 0 0 0 0 0 0

GEFSNGP_con_probscp_252.txt.gz
Probability
1 0 0 0 0 0 0 0 0 1 4 8 12 15 20 22 22 25 31 39 42 42 38 35 36 36 33 31 35 41 41 37 32 29 26 21 18 21 24 25 24 23 22 23
1 0 0 0 1 1 2 1 1 2 6 11 15 20 24 25 27 30 34 38 41 41 38 38 41 40 38 37 38 42 42 39 34 31 28 25 23 26 30 31 28 25 24 24
1 0 0 0 2 4 5 4 4 5 9 14 18 24 28 31 33 35 38 41 42 42 40 42 45 45 44 44 44 45 46 43 37 34 32 29 27 31 35 36 34 30 27 25
0 0 0 1 2 4 6 7 7 8 12 16 21 27 31 33 35 37 42 46 45 43 42 43 46 47 47 48 49 49 49 45 39 35 33 30 28 30 32 34 34 32 29 27
0 0 0 1 2 3 5 7 9 10 13 19 23 26 29 32 35 39 44 47 46 45 42 41 43 46 47 48 49 49 48 44 40 36 33 30 28 27 27 30 30 29 28 28
0 0 0 2 3 4 5 7 9 10 13 18 21 23 27 31 35 40 44 45 46 46 43 41 41 44 45 44 44 43 41 40 38 37 33 29 26 24 25 27 28 26 25 25
0 0 1 2 3 5 7 9 9 11 14 16 19 25 30 33 36 39 42 44 44 44 43 42 43 43 41 39 38 35 32 31 33 33 30 26 24 23 23 24 24 23 22 21
1 1 3 6 8 9 11 11 11 12 14 16 21 28 33 35 35 35 38 40 40 40 40 42 43 42 38 34 31 28 25 25 26 27 25 22 21 21 22 22 20 20 20 19
4 5 7 10 14 15 16 15 15 15 15 18 23 28 31 34 33 33 35 35 34 34 36 38 38 37 33 28 25 22 21 21 22 22 21 19 18 19 20 19 18 18 17 17
8 9 12 14 16 18 19 20 20 20 19 22 24 27 30 32 32 34 35 35 32 31 32 32 31 29 25 21 18 18 18 19 19 18 18 17 17 16 16 16 17 16 16 16
12 15 17 17 15 16 18 20 22 21 21 23 24 25 28 31 32 33 34 33 30 28 27 26 25 23 20 17 15 16 17 18 17 16 16 16 14 12 11 11 11 11 11 12
17 19 19 17 15 15 15 17 20 21 20 21 22 24 27 30 31 30 28 26 24 24 22 19 18 19 18 17 15 15 16 17 16 16 16 14 11 7 6 6 5 4 4 5
18 18 18 16 15 15 15 16 20 21 20 20 20 23 27 30 29 26 22 20 19 19 18 16 16 17 17 16 15 14 14 14 15 15 14 11 8 5 4 3 2 2 1 1
14 15 17 16 15 14 13 15 19 20 18 18 19 22 25 27 27 24 21 19 18 17 17 17 17 16 16 16 15 14 12 12 13 13 11 8 7 6 4 3 3 4 3 2
12 14 16 16 13 11 10 12 15 16 15 15 18 20 22 24 24 21 19 18 16 16 17 18 17 14 12 13 13 13 12 10 10 9 8 7 6 6 4 4 4 6 7 5
13 13 13 13 11 9 8 9 12 13 13 14 16 19 20 20 18 16 15 15 16 16 16 16 13 8 7 8 9 10 10 8 8 7 7 6 6 5 5 4 5 6 8 8
12 11 11 11 9 8 7 7 9 10 11 11 13 16 17 16 14 13 12 13 14 15 13 12 9 5 4 5 7 8 7 7 7 7 7 6 5 4 4 4 4 6 7 8
9 9 9 9 8 7 6 7 7 9 9 8 9 12 15 15 13 11 10 10 11 12 11 8 5 3 3 4 6 7 7 7 7 7 7 6 4 3 3 4 4 5 6 5
6 7 8 8 8 7 6 6 7 7 7 7 9 11 13 13 11 8 8 9 10 11 10 6 3 3 2 2 3 5 6 7 7 7 6 4 3 3 3 3 3 4 3 2
4 4 4 5 6 6 5 5 5 6 6 8 9 9 9 8 7 6 7 8 9 10 8 5 3 4 3 2 2 4 5 6 6 5 4 3 3 3 3 3 3 2 1 0
4 3 3 4 5 5 6 5 5 5 5 6 7 6 4 4 4 5 7 8 8 7 5 3 3 3 3 2 2 3 4 4 4 4 3 3 3 3 3 2 2 1 0 0
6 5 4 5 6 7 7 7 6 4 3 3 4 4 4 4 5 5 6 7 6 4 3 3 2 1 1 1 0 1 3 3 3 3 3 3 3 2 1 1 1 0 0 0
7 6 5 6 7 8 8 7 6 3 1 2 3 4 6 7 6 6 6 5 4 3 3 2 1 0 0 0 0 1 2 3 3 3 3 3 2 1 0 0 0 0 0 0
7 6 6 6 7 8 8 7 5 3 1 1 2 4 5 7 6 4 4 4 2 2 2 1 0 0 0 0 0 1 3 3 3 3 3 2 1 0 0 0 0 0 0 0
6 6 6 7 7 7 7 6 5 4 3 3 3 4 5 5 5 3 3 3 2 1 2 1 0 0 0 0 1 2 3 3 3 3 3 1 0 0 0 0 0 0 0 0
4 5 7 7 6 5 5 5 5 4 4 5 7 7 6 5 4 3 3 3 2 2 2 2 1 1 1 1 2 3 4 4 3 3 3 1 0 0 0 0 0 0 0 0
2 4 7 7 5 4 4 4 4 4 4 6 9 10 8 6 4 3 3 3 3 3 3 3 2 2 2 2 1 2 4 5 4 3 3 2 1 0 0 0 0 0 0 0

GEFSNGP_con_probscp_258.txt.gz
Probability
0 0 0 0 0 0 0 1 2 3 8 14 20 24 28 32 37 40 43 48 58 63 62 59 59 59 56 56 58 58 56 53 52 52 50 48 45 41 37 32 29 28 27 25
0 0 0 0 0 0 1 1 2 5 12 19 25 30 32 35 40 44 46 51 58 63 63 64 64 62 59 59 61 61 60 57 55 52 50 48 44 40 37 33 30 28 26 25
0 0 0 0 0 1 2 2 3 8 16 24 30 36 38 39 44 48 48 53 60 63 65 68 69 67 65 65 67 68 66 63 59 56 53 48 43 40 38 36 33 31 28 26
0 0 0 0 0 2 5 6 7 11 18 25 31 38 41 43 47 49 50 55 60 63 66 68 69 69 68 68 69 70 67 63 61 60 56 49 44 41 41 40 38 35 32 30
1 0 0 0 1 3 7 10 12 14 20 26 31 37 40 44 50 53 55 58 60 60 63 65 66 66 66 65 65 65 63 60 58 57 53 48 44 43 42 42 39 35 31 30
1 1 1 2 2 3 8 13 15 17 22 28 33 37 41 48 54 57 58 59 59 59 60 62 64 64 63 61 60 59 57 54 52 52 50 46 44 43 41 40 38 33 29 28
1 2 3 4 4 8 15 21 21 21 24 29 35 42 48 54 58 58 57 57 58 58 59 61 62 62 61 60 57 54 49 46 45 46 45 41 41 41 38 36 34 31 29 28
4 6 9 12 15 22 30 32 27 25 28 32 38 45 50 53 57 58 57 56 57 58 58 59 60 60 59 57 53 48 43 39 37 39 37 34 35 34 33 31 29 29 28 27
12 14 18 23 28 34 36 32 28 28 31 36 41 44 45 48 52 55 56 55 55 55 54 54 55 55 54 51 46 43 39 35 32 31 30 30 29 28 28 27 26 26 26 26
18 18 21 24 27 29 29 27 27 29 33 39 42 42 42 44 47 50 50 49 48 48 49 49 49 48 46 44 41 38 35 31 27 24 24 24 25 25 24 22 22 23 24 24
18 19 20 21 21 22 25 27 29 31 36 41 42 42 41 44 46 46 45 43 42 42 42 43 43 42 40 40 39 36 32 27 22 19 17 18 19 19 17 15 14 16 18 19
19 21 23 23 21 21 24 28 31 35 39 41 41 40 39 41 43 42 41 42 41 38 35 34 35 35 35 36 36 35 31 26 22 18 17 16 15 13 10 8 6 7 9 10
19 20 22 22 22 23 25 29 33 37 39 40 40 37 34 35 37 37 38 41 40 35 30 28 27 28 30 31 31 33 31 27 23 22 20 18 15 12 9 6 4 2 2 2
17 18 21 24 25 26 28 31 33 34 34 35 35 32 28 29 31 32 34 36 35 33 29 26 24 25 27 28 27 28 27 25 24 23 21 19 16 14 12 9 7 4 2 1
19 20 23 27 29 29 28 28 28 28 28 28 28 26 23 23 27 29 29 30 32 31 29 27 25 26 29 29 27 25 21 19 20 21 19 17 16 15 14 12 10 7 5 4
20 21 24 27 28 28 26 24 23 24 25 23 22 21 19 20 24 26 26 28 31 31 29 28 26 26 29 30 27 24 19 14 14 16 16 15 15 15 14 13 11 10 8 7
19 20 21 22 24 24 23 21 21 23 23 21 19 17 17 18 20 22 24 28 31 31 30 28 26 26 26 26 23 20 16 11 9 11 13 14 14 14 12 11 10 10 10 8
17 18 18 17 18 21 21 20 20 20 19 18 17 15 14 15 16 19 23 26 28 30 28 24 22 22 20 18 16 14 12 9 6 7 9 11 13 12 9 8 9 10 8 6
15 16 15 14 14 17 20 21 21 19 17 17 17 15 14 15 17 19 22 24 24 24 23 18 15 15 13 10 8 9 8 6 4 4 5 7 8 7 7 6 7 8 8 5
15 15 14 13 13 16 19 21 22 21 18 18 18 17 16 17 18 19 19 20 20 19 16 13 11 10 8 5 4 4 5 4 3 3 3 3 4 4 5 6 7 7 7 5
15 14 14 14 15 17 18 20 21 19 17 17 18 18 18 18 18 17 16 16 17 15 11 8 8 7 5 3 2 1 2 2 3 3 3 3 3 3 4 6 6 6 5 4
14 14 14 16 17 18 19 18 18 17 16 16 16 16 17 17 16 14 13 13 13 10 6 5 5 4 3 3 2 1 1 2 3 3 2 3 3 3 4 6 6 5 4 3
18 18 18 19 18 18 18 17 16 16 17 16 16 15 14 12 11 10 9 8 7 5 4 4 4 3 3 3 2 1 2 3 2 1 1 1 2 3 3 5 5 4 3 3
22 23 23 22 20 18 18 17 15 16 17 16 15 13 10 8 8 7 5 4 3 2 3 3 3 2 2 3 2 1 2 3 3 1 0 0 1 2 2 3 4 3 3 3
20 22 23 23 21 19 18 17 15 15 14 12 10 7 6 7 7 6 4 3 2 2 3 3 1 1 2 3 2 1 1 2 3 2 1 1 0 0 0 1 3 3 3 3
13 16 19 19 18 16 16 15 14 12 10 8 5 3 4 6 7 6 5 4 3 3 3 3 1 1 3 3 3 1 1 1 3 3 3 2 1 0 1 1 3 3 3 3
11 13 16 16 14 14 14 13 11 8 8 6 3 2 4 6 7 7 6 5 4 3 3 3 2 2 3 3 3 2 2 1 2 3 3 3 2 1 2 2 3 3 3 2